SCP
0 0 0 0 0 0 0 0 0 0 0 0 0 0 0 0 0 0 0 0 0 0 0 0 0 0 0 0 0 0 0 0 0 0 0 0 0 0 0 0 0 0 0 0 0 0 0 0 0 0 0 0 0 0
0 0 0 0 0 0 0 0 0 0 0 0 0 0 0 0 0 0 0 0 0 0 0 0 0 0 0 0 0 0 0 0 0 0 0 0 0 0 0 0 0 0 0 0 0 0 0 0 0 0 0 0 0 0
0 0 0 0 0 0 0 0 0 0 0 0 0 0 0 0 0 0 0 0 0 0 0 0 0 0 0 0 0 0 0 0 0 0 0 0 0 0 0 0 0 0 0 0 0 0 0 0 0 0 0 0 0 0
0 0 0 0 0 0 0 0 0 0 0 0 0 0 0 0 0 0 0 0 0 0 0 0 0 0 0 0 0 0 0 0 0 0 0 0 0 0 0 0 0 0 0 0 0 0 0 0 0 0 0 0 0 0
0 0 0 0 0 0 0 0 0 0 0 0 0 0 0 0 0 0 0 0 0 0 0 0 0 0 0 0 0 0 0 0 0 0 0 0 0 0 0 0 0 0 0 0 0 0 0 0 0 0 0 0 0 0
0 0 0 0 0 0 0 0 0 0 0 0 0 0 0 0 0 0 0 0 0 0 0 0 0 0 0 0 0 0 0 0 0 0 0 0 0 0 0 0 0 0 0 0 0 0 0 0 0 0 0 0 0 0
0 0 0 0 0 0 0 0 0 0 0 0 0 0 0 0 0 0 0 0 0 0 0 0 0 -0 0 0 0 0 0 0 0 0 0 0 0 0 0 -0 0 0 0 0 0 0 0 0 0 0 0 0 0 0
0 0 0 0 0 0 0 0 0 0 0 0 0 0 0 0 0 0 0 0 0 0 0 0 0 0 0 0 0 0 0 0 0 0 0 0 0 0 0 0 0 0 0 0 0 0 0 0 0 0 0 0 0 0
0 0 0 0 0 0 0 0 0 0 0 0 0 0 0 0 0 0 0 0 0 0 0 0 0 0 0 0 0 0 0 0 0 0 0 0 0 0 0 0 0 0 0 0 0 0 0 0 0 0 0 0 0 0
0 0 0 0 0 0 0 0 0 0 0 0 0 0 0 0 0 0 0 0 0 0 0 0 0 0 0 0 0 0 0 0 0 0 0 0 0 0 0 0 0 0 0 0 0 0 0 0 0 0 0 0 0 0
0 0 0 0 0 0 0 0 0 0 0 0 0 0 0 0 0 0 0 0 0 0 0 0 0 0 0 0 0 0 0 0 0 0 0 0 0 0 0 0 0 0 0 0 0 0 0 0 0 0 0 0 0 0
0 0 0 0 0 0 0 0 0 0 0 0 0 0 0 0 0 0 0 0 0 0 0 -0 0 0 0 0 0 0 0 0 0 0 0 0 0 1 0 0 0 0 0 0 0 0 0 0 0 0 0 0 0 0
0 0 0 0 0 0 0 0 0 0 0 0 0 0 0 0 0 0 0 0 0 0 0 -0 0 0 0 0 0 0 0 0 0 0 0 0 1 0 0 0 0 0 0 0 0 0 0 0 0 0 0 0 0 0
0 0 0 0 0 0 0 0 0 0 0 0 0 0 0 0 0 0 0 0 0 0 0 0 0 0 0 0 0 0 0 0 0 0 0 0 0 0 0 0 0 0 0 0 0 0 0 0 0 0 0 0 0 0
0 0 0 0 0 0 0 0 0 0 0 0 0 0 0 0 0 0 0 0 0 0 0 0 0 0 0 0 0 0 0 0 0 0 0 0 0 0 0 0 0 0 0 0 0 0 0 0 0 0 0 0 0 0
0 0 0 0 0 0 0 0 0 0 0 0 0 0 0 0 0 -0 0 0 0 0 0 0 0 0 0 0 0 0 0 0 0 0 1 1 0 0 0 0 0 0 0 0 0 0 0 0 0 0 0 0 0 0
0 0 0 0 0 0 0 0 0 0 0 0 -0 -0 -0 0 0 0 -0 -0 0 0 0 0 0 0 0 0 0 0 0 0 0 0 0 1 1 0 0 0 0 0 0 0 0 0 0 0 0 0 0 0 0 0
0 0 0 0 0 0 0 0 0 0 0 -0 -0 -0 -0 0 0 0 -0 -0 -0 0 0 0 0 0 0 0 0 0 0 0 0 0 0 0 0 0 0 0 0 0 0 0 0 0 -0 0 0 0 0 0 0 0
0 0 0 0 0 0 0 0 0 0 0 0 0 0 -0 0 0 -0 -0 0 0 0 0 0 0 -0 0 -0 0 0 0 0 0 0 0 0 0 0 0 0 0 -0 0 0 0 0 0 -0 0 -0 -0 -0 0 0
0 0 0 0 0 0 0 0 0 0 0 -0 -0 -0 -0 0 0 0 0 0 0 0 0 0 0 -0 -0 -0 -0 0 0 0 0 0 0 0 0 0 0 0 0 0 0 0 0 0 0 -0 -0 -0 -0 -0 0 0
0 0 0 0 0 -0 0 0 0 0 -0 -0 0 -0 -0 0 0 0 0 0 0 0 0 0 0 -0 -0 -0 -0 -0 0 0 0 0 0 0 0 0 0 0 0 0 0 0 0 0 -0 -0 -0 -0 -0 0 -0 -0
0 0 0 0 0 0 0 0 0 0 0 -0 -0 0 -0 0 0 0 0 0 -0 -0 -0 -0 -0 0 -0 -0 -0 -0 0 0 0 0 0 0 0 0 0 0 0 0 0 0 0 0 0 0 -0 -0 -0 -0 -0 -0
0 0 0 0 0 0 -0 0 -0 0 0 0 -0 -0 -0 -0 -0 0 0 0 -0 -0 -0 -0 0 -0 -0 -0 -0 -0 0 0 0 0 0 0 0 0 0 0 0 0 0 0 -0 0 -0 -0 0 -0 -0 -0 -0 -0
-0 0 0 0 0 -0 0 0 0 0 0 0 -0 -0 0 0 0 0 0 0 0 0 0 -0 0 0 -0 -0 -0 0 0 0 0 0 0 0 0 0 0 0 0 0 -0 0 0 -0 0 -0 -0 -0 -0 -0 -0 -0
0 0 0 0 0 0 -0 -0 0 0 -0 -0 -0 -0 0 -0 -0 0 0 0 0 0 0 0 -0 0 -0 -0 -0 0 0 0 0 0 0 0 0 0 0 0 0 0 0 -0 0 -0 -0 -0 -0 -0 -0 0 -0 0
0 0 0 0 0 0 0 0 0 0 0 0 0 0 0 0 0 0 0 0 0 0 0 0 0 0 -0 0 0 0 0 0 0 0 0 0 0 0 0 0 0 0 0 0 0 0 -0 -0 -0 -0 0 -0 -0 0
0 0 0 0 0 0 0 0 0 0 0 0 0 0 0 0 0 0 0 0 0 0 0 0 0 0 0 0 0 0 0 0 0 0 0 0 0 0 0 0 0 -0 -0 0 0 0 -0 -0 -0 -0 -0 0 0 -0
0 0 0 0 0 0 0 0 0 0 0 0 0 0 0 0 0 0 0 0 0 0 0 0 0 0 0 0 0 0 0 0 0 0 0 0 0 0 0 0 0 0 0 0 0 -0 -0 -0 0 -0 -0 -0 0 0
0 0 0 -0 0 0 0 0 0 0 0 0 0 0 0 0 0 0 0 0 0 0 0 0 0 0 0 0 0 0 0 0 -0 0 0 0 0 0 0 -0 0 0 -0 -0 -0 -0 -0 -0 0 -0 -0 -0 -0 0
0 0 0 0 0 0 0 0 0 0 0 0 0 0 0 0 0 0 0 0 0 0 0 0 0 0 0 0 0 0 0 0 -0 0 0 0 0 0 0 0 -0 -0 -0 -0 0 0 -0 0 -0 -0 -0 -0 0 0
0 0 0 0 0 -0 -0 -0 0 0 0 0 0 0 0 0 0 0 0 0 0 0 0 0 0 0 0 0 0 0 0 0 0 -0 0 0 0 0 0 -0 0 0 -0 -0 0 0 0 0 -0 -0 -0 0 0 -0
0 0 0 0 0 0 0 0 0 0 0 0 0 0 0 0 0 0 0 0 0 0 0 0 0 0 0 0 0 0 0 0 0 0 0 0 0 -0 0 0 0 0 0 -0 -0 -0 0 0 0 0 0 0 -0 0
0 0 0 0 0 0 0 0 0 0 0 0 0 0 0 0 0 0 0 0 0 0 0 0 0 0 0 0 0 0 0 0 0 0 0 -0 0 0 0 0 0 0 0 -0 -0 -0 0 0 -0 -0 0 0 0 0
Wind_Speed_500mb
34 35 35 35 36 40 41 41 42 44 46 46 42 40 41 36 31 28 23 10 20 36 57 52 43 39 34 29 17 21 15 9 16 20 20 22 25 27 29 27 19 20 16 16 19 23 25 19 8 7 9 9 19 20
32 32 33 34 34 33 33 35 36 37 37 39 43 40 37 36 33 27 24 10 18 33 48 51 47 46 42 44 44 39 37 30 12 10 15 16 24 24 23 20 14 20 24 16 15 13 5 4 12 9 10 14 23 25
34 33 34 34 33 34 34 35 34 33 34 35 35 36 36 37 34 30 35 26 24 41 62 60 59 59 58 56 45 46 42 38 41 32 26 17 21 16 19 18 21 24 22 19 18 15 22 33 23 20 21 18 15 24
34 34 32 34 32 34 33 34 36 35 33 33 32 32 33 33 37 32 36 20 22 25 19 37 38 44 46 47 57 58 55 50 32 31 25 16 21 22 19 24 24 29 2 6 14 22 34 33 23 14 15 20 28 32
33 32 33 34 33 34 32 34 33 31 30 31 31 32 32 32 34 35 37 36 26 24 15 36 56 47 30 40 41 44 56 53 49 35 20 22 35 28 29 26 25 26 25 17 20 24 23 19 22 26 29 33 37 32
32 33 33 32 31 33 32 32 33 31 31 34 33 33 32 30 27 18 9 4 18 26 16 10 14 51 47 42 42 44 47 52 56 51 41 49 48 37 17 24 34 37 40 39 24 20 27 21 23 28 33 30 25 29
36 34 32 32 33 34 34 34 33 29 30 33 36 35 34 30 24 19 13 7 30 18 9 13 13 35 69 53 54 47 48 46 45 50 47 48 45 39 23 29 33 33 28 35 24 23 32 30 27 28 23 28 36 33
32 32 33 33 33 33 34 33 33 30 32 34 33 32 31 30 31 29 35 10 21 29 14 10 12 27 27 52 49 48 49 49 52 50 47 38 40 40 24 37 37 37 34 40 41 41 26 17 17 26 30 27 32 38
32 33 34 35 35 35 34 33 31 29 31 31 27 26 32 18 17 17 17 23 26 23 10 12 20 10 18 40 47 44 39 23 35 25 30 27 25 23 24 43 49 25 26 34 27 16 14 23 22 24 26 33 38 43
36 36 36 34 34 34 33 33 30 31 28 25 26 14 13 10 21 14 11 10 14 17 18 11 39 15 19 25 27 23 35 20 17 27 33 29 27 47 46 38 12 16 15 14 15 18 26 26 13 25 29 34 41 45
35 37 35 35 33 31 31 31 27 28 26 16 11 14 18 18 19 16 13 13 21 12 19 24 59 26 21 12 11 18 5 11 24 24 25 24 25 35 61 55 38 29 24 17 12 11 12 15 21 28 34 37 40 40
35 35 37 35 31 31 29 28 27 27 27 18 16 24 21 10 13 10 10 12 14 12 22 38 43 53 14 8 8 12 5 7 12 21 24 32 16 17 36 54 35 20 18 16 13 10 11 18 24 30 34 36 35 34
35 32 31 28 30 28 26 30 28 28 29 28 13 7 9 12 9 11 15 10 9 14 14 30 19 31 28 11 7 4 6 8 15 8 10 13 28 32 32 31 28 23 20 13 7 10 16 23 25 27 28 28 29 40
30 27 27 27 29 25 30 25 24 26 20 8 9 8 8 7 12 16 12 10 21 23 18 23 25 14 19 9 3 5 8 10 6 15 18 15 36 38 36 33 31 22 15 8 7 13 18 20 21 21 21 26 30 29
25 24 26 23 17 19 17 14 12 19 15 8 7 7 10 26 31 24 40 29 20 27 14 10 13 8 7 7 8 7 9 12 9 19 11 40 51 46 41 33 25 16 7 3 7 13 15 15 19 25 25 24 24 16
20 18 10 11 14 10 9 11 13 20 7 8 12 10 24 37 24 15 17 24 28 26 4 9 3 5 6 8 15 15 9 11 15 16 41 51 50 43 37 28 20 11 4 2 6 8 11 14 22 30 28 20 7 7
13 7 15 16 11 11 10 16 11 10 9 9 16 28 37 38 32 25 5 15 30 27 1 7 9 6 3 7 8 10 15 8 16 40 47 49 47 41 32 24 16 9 2 1 2 5 8 15 15 13 14 10 10 10
9 14 15 11 12 12 14 13 6 9 14 23 22 26 26 28 34 34 15 10 11 9 3 4 1 5 6 5 7 11 23 51 20 47 50 43 39 33 25 18 9 6 5 2 1 7 7 16 21 13 9 14 15 11
11 4 6 5 6 12 6 8 11 10 23 29 34 38 34 36 37 28 24 20 17 7 4 4 9 6 7 8 7 28 40 47 61 37 40 33 28 24 19 11 9 7 3 7 8 8 11 16 19 15 19 22 24 22
4 8 10 6 5 6 7 8 11 13 16 20 27 28 33 33 31 28 32 23 25 13 9 7 9 21 14 3 13 12 25 47 61 27 25 23 19 19 9 6 4 11 10 14 9 13 15 21 29 28 29 32 30 25
8 12 12 11 17 12 10 7 11 15 20 17 25 23 21 28 31 36 40 35 35 12 12 23 31 27 27 17 11 21 33 50 44 27 20 26 15 8 4 5 4 11 19 11 17 16 19 30 22 20 25 32 24 20
11 10 11 9 8 8 11 15 13 11 10 26 39 32 23 22 30 34 42 44 51 45 40 34 32 15 12 13 13 18 46 27 31 26 13 12 8 6 5 3 4 26 18 15 15 17 16 26 20 18 24 21 18 14
10 9 9 7 8 8 14 14 11 8 6 9 9 5 7 8 13 16 14 36 53 53 52 45 36 29 24 14 15 21 33 24 24 16 10 7 4 5 5 5 7 17 13 18 17 21 19 19 10 14 8 10 13 10
11 7 7 6 10 11 10 10 12 8 9 7 7 8 8 13 10 10 9 29 36 37 45 46 36 31 28 31 43 43 35 29 27 18 8 6 9 11 8 11 11 22 15 25 19 22 22 15 17 21 21 2 4 9
7 9 10 13 12 10 9 9 10 8 7 9 7 10 5 3 5 7 14 20 28 32 38 42 45 39 36 39 38 37 38 36 19 13 12 12 15 14 14 16 21 14 17 25 26 22 17 30 13 7 3 5 18 2
9 12 13 10 10 11 7 8 5 7 8 8 10 8 7 6 5 9 5 11 19 23 23 18 36 40 44 39 28 30 32 25 22 21 14 15 16 17 18 15 23 20 33 20 31 16 12 4 11 17 11 18 25 11
9 13 23 20 24 22 14 28 27 11 8 7 6 6 5 5 6 7 22 24 28 12 20 30 32 36 41 41 39 27 23 27 25 21 17 17 15 12 8 6 33 25 40 27 27 10 12 26 25 19 22 19 16 10
21 16 20 24 22 21 19 21 18 11 7 8 6 5 3 4 5 14 20 17 7 14 20 22 27 32 33 30 30 34 31 29 25 24 20 12 9 9 10 18 28 44 44 19 12 8 10 15 10 28 21 22 18 17
20 17 19 26 26 13 13 12 15 26 30 33 12 8 6 9 29 29 25 12 16 14 29 27 28 30 30 30 31 27 27 29 31 23 17 20 22 15 12 11 17 50 42 16 6 0 6 11 20 37 18 15 17 13
31 30 28 20 11 9 18 19 27 28 31 34 31 35 34 27 25 18 15 10 8 15 25 27 21 25 33 32 32 27 26 23 22 25 26 23 29 16 20 27 45 45 31 26 19 11 15 21 26 22 15 14 15 6
19 14 14 21 17 30 29 31 33 38 39 39 35 38 40 36 29 17 6 2 5 7 12 16 19 25 31 28 27 26 23 22 21 10 15 23 20 23 39 47 37 31 24 21 24 26 25 19 12 15 10 6 6 5
8 10 9 8 18 24 39 24 26 30 27 25 25 26 22 17 15 7 10 8 8 13 15 16 21 23 24 25 25 26 22 26 28 18 24 26 39 60 45 37 28 25 22 31 31 26 13 3 2 8 8 7 19 8
10 16 17 13 9 8 10 13 8 11 9 8 7 6 4 2 6 5 2 7 13 14 18 18 22 22 23 23 29 29 27 24 29 29 42 51 43 43 40 31 31 31 26 23 31 19 12 13 9 17 12 8 19 14
Wind_Direction_500mb
304 305 307 306 305 303 302 301 300 297 294 292 289 292 294 293 294 290 265 233 280 283 277 279 282 286 278 261 274 279 300 245 264 259 255 266 263 264 266 261 259 270 264 238 245 256 261 41 327 323 48 14 1 343
305 308 310 313 312 316 316 311 306 305 304 298 293 288 285 287 283 281 282 287 277 267 266 291 278 265 264 263 276 280 278 279 300 264 240 263 270 272 277 271 227 247 247 276 306 335 39 350 9 44 354 331 320 328
303 302 304 307 310 312 315 317 316 312 308 304 299 293 287 283 279 270 263 266 292 286 287 268 265 260 253 245 242 254 254 260 268 258 287 296 279 297 281 270 273 255 230 234 256 272 332 322 321 315 298 299 323 312
303 303 303 305 307 309 311 313 317 316 313 310 305 300 291 282 279 275 264 247 267 274 281 280 274 266 253 242 235 237 244 253 269 270 258 251 265 269 264 274 275 276 278 287 267 273 280 274 289 343 334 310 305 300
303 304 304 303 305 306 306 310 310 312 314 313 307 306 303 295 286 279 269 254 240 240 304 300 300 272 244 225 234 234 232 237 242 247 233 243 258 268 266 270 270 264 274 265 269 275 286 313 317 312 308 303 299 298
303 303 300 299 299 302 304 303 305 301 301 307 304 305 304 303 299 307 319 267 218 241 260 269 308 274 254 231 228 234 231 235 238 239 245 254 255 261 259 256 263 266 255 252 264 291 302 293 296 301 296 290 290 293
297 300 301 301 299 298 298 296 295 297 298 302 302 298 296 296 286 243 234 212 202 199 251 258 239 240 231 230 232 223 225 230 233 232 236 245 248 247 257 261 263 268 295 300 298 261 262 266 288 286 298 292 292 293
297 294 296 299 300 297 296 300 295 290 292 297 301 302 298 294 287 271 248 245 207 195 273 265 257 279 197 217 219 215 222 224 229 243 242 239 245 249 255 262 266 269 269 273 271 268 281 287 287 289 290 289 292 295
305 307 304 300 297 298 298 294 292 286 287 287 294 311 307 265 249 248 226 199 221 204 263 276 245 259 219 213 216 213 212 227 224 226 233 236 234 228 233 246 248 232 261 270 258 261 258 261 271 274 289 296 307 307
294 296 295 298 297 296 299 298 297 286 283 279 295 267 261 239 232 189 175 186 202 238 226 259 273 286 322 307 231 215 211 221 225 213 224 227 240 248 245 235 225 223 245 254 270 284 284 270 267 290 304 309 303 305
289 290 291 293 294 293 295 293 293 284 275 261 244 235 286 270 183 195 199 215 185 215 214 223 238 264 290 311 319 348 302 219 229 227 214 226 236 232 232 240 243 241 220 208 248 243 270 283 296 305 306 305 307 306
293 289 286 285 290 291 292 291 283 271 255 236 302 289 286 234 235 218 192 213 208 220 210 209 217 215 248 309 315 325 280 233 250 214 209 222 224 63 208 210 213 185 196 198 198 230 276 295 301 302 305 308 311 309
294 287 286 285 294 290 284 294 269 272 270 275 261 238 242 208 246 236 191 188 212 218 219 206 189 178 205 257 277 308 288 272 295 225 198 217 122 113 116 128 134 145 156 170 210 274 298 303 305 307 307 308 314 318
298 298 291 289 292 286 294 274 275 268 230 226 229 243 249 219 240 228 241 257 246 251 251 203 171 155 159 173 345 268 250 266 267 228 191 155 140 136 138 145 145 151 162 179 275 299 307 314 308 304 308 307 310 318
298 301 299 292 286 288 274 265 281 210 205 250 234 245 247 270 287 323 333 315 302 315 293 120 208 133 133 149 200 251 253 241 233 231 235 148 145 145 143 145 146 143 163 241 296 312 314 307 308 310 309 299 313 320
304 306 314 300 285 266 287 244 208 202 220 225 234 246 255 277 284 325 342 340 350 328 169 129 76 119 219 189 194 204 223 230 226 227 131 134 135 136 135 133 125 131 153 277 312 310 310 319 321 317 318 307 286 330
302 288 308 302 254 271 246 206 204 210 234 232 244 243 265 265 284 298 280 333 318 321 307 57 172 235 293 227 213 240 228 354 97 121 128 132 131 130 132 129 123 122 125 354 335 312 336 346 342 14 20 44 93 88
284 292 309 297 241 216 200 202 225 237 243 242 248 263 273 273 274 278 287 284 288 292 342 107 188 248 259 251 165 357 1 333 337 133 125 129 127 127 122 119 128 134 116 102 38 356 62 13 31 37 64 98 95 82
273 320 314 302 256 235 224 236 216 259 243 253 253 254 262 266 266 256 261 265 264 288 153 230 238 226 247 212 354 357 352 355 327 119 117 123 119 115 116 130 150 150 150 124 84 45 56 74 50 66 99 108 103 74
252 257 264 242 223 254 243 234 221 256 271 288 293 276 275 278 268 262 260 210 190 207 203 227 237 253 246 17 6 337 353 332 330 130 128 123 114 116 118 137 142 167 170 132 89 94 103 90 78 91 94 94 94 84
266 258 253 230 248 253 260 260 251 258 284 278 278 287 275 267 261 267 250 230 198 214 226 243 261 279 204 221 278 280 271 314 321 1 55 116 111 115 148 191 210 127 128 101 129 115 112 117 108 93 103 94 95 95
295 277 273 271 259 253 262 242 248 274 265 274 291 283 265 266 272 259 249 243 227 222 222 244 247 248 178 237 312 230 268 301 339 343 32 68 55 49 26 83 97 128 118 122 143 128 125 117 117 117 107 94 86 67
282 270 256 240 253 248 263 240 245 243 262 271 277 260 254 254 258 266 243 238 244 241 236 235 234 237 233 241 272 274 266 263 262 303 13 355 326 317 282 224 199 159 127 148 150 139 137 138 107 78 143 145 113 78
267 255 243 235 221 262 247 234 216 238 257 255 273 272 244 215 252 228 230 235 241 236 230 231 226 221 224 223 227 231 238 230 254 296 305 301 293 283 238 228 179 136 131 146 148 145 141 147 119 143 146 181 117 108
258 243 219 230 235 233 254 239 212 200 247 222 243 252 264 299 257 252 251 254 246 231 218 204 205 211 219 220 223 223 224 222 229 265 267 252 265 263 225 219 142 127 157 158 157 168 178 135 91 152 232 123 124 241
241 229 211 239 205 224 253 285 243 225 244 224 236 236 229 221 253 262 257 265 254 242 242 220 201 200 210 215 214 219 220 217 250 229 243 245 233 237 262 236 157 161 159 167 159 182 145 154 197 186 138 115 115 106
245 245 220 240 260 272 272 282 287 245 257 256 250 201 203 228 248 273 286 286 274 220 221 217 208 197 205 214 214 200 207 214 220 209 223 216 230 214 302 22 153 158 178 172 184 169 199 224 200 206 151 132 111 113
240 275 264 262 245 265 271 293 297 275 238 229 268 243 228 246 237 246 216 130 134 179 179 182 185 190 187 195 192 184 192 200 197 206 213 184 184 200 153 138 125 150 171 149 136 97 100 148 154 143 119 166 139 109
241 256 277 278 278 269 258 257 250 263 288 314 316 323 268 235 309 310 328 194 144 192 183 190 194 196 183 175 172 184 184 184 180 195 191 186 190 169 173 183 176 168 166 186 196 145 305 170 149 128 122 130 127 111
261 259 259 269 262 254 246 233 270 284 289 292 287 276 283 286 296 301 305 315 269 170 167 161 163 166 166 164 175 181 179 173 176 188 206 229 173 181 178 160 158 168 176 170 145 132 124 124 116 129 138 114 136 152
284 279 259 252 261 267 276 283 284 283 279 283 287 296 301 317 316 325 324 210 231 200 162 168 171 171 174 174 170 174 177 179 179 144 148 166 165 160 149 156 161 170 175 178 153 153 147 150 139 130 120 339 42 299
258 245 262 254 264 302 315 298 286 283 282 284 284 288 270 278 280 291 287 272 222 205 197 187 187 186 184 184 187 188 177 174 181 184 162 144 154 143 154 162 170 162 161 159 163 151 170 165 253 209 280 11 185 267
238 250 251 277 277 270 284 325 318 320 306 305 311 317 311 252 260 292 346 174 164 160 175 173 174 177 183 186 171 164 168 176 183 175 151 156 161 153 157 165 161 165 173 165 154 163 139 162 218 200 143 98 104 94
Wind_Speed_850mb
34 35 35 35 36 40 41 41 42 44 46 46 42 40 41 36 31 28 23 10 20 36 57 52 43 39 34 29 17 21 15 9 16 20 20 22 25 27 29 27 19 20 16 16 19 23 25 19 8 7 9 9 19 20
32 32 33 34 34 33 33 35 36 37 37 39 43 40 37 36 33 27 24 10 18 33 48 51 47 46 42 44 44 39 37 30 12 10 15 16 24 24 23 20 14 20 24 16 15 13 5 4 12 9 10 14 23 25
34 33 34 34 33 34 34 35 34 33 34 35 35 36 36 37 34 30 35 26 24 41 62 60 59 59 58 56 45 46 42 38 41 32 26 17 21 16 19 18 21 24 22 19 18 15 22 33 23 20 21 18 15 24
34 34 32 34 32 34 33 34 36 35 33 33 32 32 33 33 37 32 36 20 22 25 19 37 38 44 46 47 57 58 55 50 32 31 25 16 21 22 19 24 24 29 2 6 14 22 34 33 23 14 15 20 28 32
33 32 33 34 33 34 32 34 33 31 30 31 31 32 32 32 34 35 37 36 26 24 15 36 56 47 30 40 41 44 56 53 49 35 20 22 35 28 29 26 25 26 25 17 20 24 23 19 22 26 29 33 37 32
32 33 33 32 31 33 32 32 33 31 31 34 33 33 32 30 27 18 9 4 18 26 16 10 14 51 47 42 42 44 47 52 56 51 41 49 48 37 17 24 34 37 40 39 24 20 27 21 23 28 33 30 25 29
36 34 32 32 33 34 34 34 33 29 30 33 36 35 34 30 24 19 13 7 30 18 9 13 13 35 69 53 54 47 48 46 45 50 47 48 45 39 23 29 33 33 28 35 24 23 32 30 27 28 23 28 36 33
32 32 33 33 33 33 34 33 33 30 32 34 33 32 31 30 31 29 35 10 21 29 14 10 12 27 27 52 49 48 49 49 52 50 47 38 40 40 24 37 37 37 34 40 41 41 26 17 17 26 30 27 32 38
32 33 34 35 35 35 34 33 31 29 31 31 27 26 32 18 17 17 17 23 26 23 10 12 20 10 18 40 47 44 39 23 35 25 30 27 25 23 24 43 49 25 26 34 27 16 14 23 22 24 26 33 38 43
36 36 36 34 34 34 33 33 30 31 28 25 26 14 13 10 21 14 11 10 14 17 18 11 39 15 19 25 27 23 35 20 17 27 33 29 27 47 46 38 12 16 15 14 15 18 26 26 13 25 29 34 41 45
35 37 35 35 33 31 31 31 27 28 26 16 11 14 18 18 19 16 13 13 21 12 19 24 59 26 21 12 11 18 5 11 24 24 25 24 25 35 61 55 38 29 24 17 12 11 12 15 21 28 34 37 40 40
35 35 37 35 31 31 29 28 27 27 27 18 16 24 21 10 13 10 10 12 14 12 22 38 43 53 14 8 8 12 5 7 12 21 24 32 16 17 36 54 35 20 18 16 13 10 11 18 24 30 34 36 35 34
35 32 31 28 30 28 26 30 28 28 29 28 13 7 9 12 9 11 15 10 9 14 14 30 19 31 28 11 7 4 6 8 15 8 10 13 28 32 32 31 28 23 20 13 7 10 16 23 25 27 28 28 29 40
30 27 27 27 29 25 30 25 24 26 20 8 9 8 8 7 12 16 12 10 21 23 18 23 25 14 19 9 3 5 8 10 6 15 18 15 36 38 36 33 31 22 15 8 7 13 18 20 21 21 21 26 30 29
25 24 26 23 17 19 17 14 12 19 15 8 7 7 10 26 31 24 40 29 20 27 14 10 13 8 7 7 8 7 9 12 9 19 11 40 51 46 41 33 25 16 7 3 7 13 15 15 19 25 25 24 24 16
20 18 10 11 14 10 9 11 13 20 7 8 12 10 24 37 24 15 17 24 28 26 4 9 3 5 6 8 15 15 9 11 15 16 41 51 50 43 37 28 20 11 4 2 6 8 11 14 22 30 28 20 7 7
13 7 15 16 11 11 10 16 11 10 9 9 16 28 37 38 32 25 5 15 30 27 1 7 9 6 3 7 8 10 15 8 16 40 47 49 47 41 32 24 16 9 2 1 2 5 8 15 15 13 14 10 10 10
9 14 15 11 12 12 14 13 6 9 14 23 22 26 26 28 34 34 15 10 11 9 3 4 1 5 6 5 7 11 23 51 20 47 50 43 39 33 25 18 9 6 5 2 1 7 7 16 21 13 9 14 15 11
11 4 6 5 6 12 6 8 11 10 23 29 34 38 34 36 37 28 24 20 17 7 4 4 9 6 7 8 7 28 40 47 61 37 40 33 28 24 19 11 9 7 3 7 8 8 11 16 19 15 19 22 24 22
4 8 10 6 5 6 7 8 11 13 16 20 27 28 33 33 31 28 32 23 25 13 9 7 9 21 14 3 13 12 25 47 61 27 25 23 19 19 9 6 4 11 10 14 9 13 15 21 29 28 29 32 30 25
8 12 12 11 17 12 10 7 11 15 20 17 25 23 21 28 31 36 40 35 35 12 12 23 31 27 27 17 11 21 33 50 44 27 20 26 15 8 4 5 4 11 19 11 17 16 19 30 22 20 25 32 24 20
11 10 11 9 8 8 11 15 13 11 10 26 39 32 23 22 30 34 42 44 51 45 40 34 32 15 12 13 13 18 46 27 31 26 13 12 8 6 5 3 4 26 18 15 15 17 16 26 20 18 24 21 18 14
10 9 9 7 8 8 14 14 11 8 6 9 9 5 7 8 13 16 14 36 53 53 52 45 36 29 24 14 15 21 33 24 24 16 10 7 4 5 5 5 7 17 13 18 17 21 19 19 10 14 8 10 13 10
11 7 7 6 10 11 10 10 12 8 9 7 7 8 8 13 10 10 9 29 36 37 45 46 36 31 28 31 43 43 35 29 27 18 8 6 9 11 8 11 11 22 15 25 19 22 22 15 17 21 21 2 4 9
7 9 10 13 12 10 9 9 10 8 7 9 7 10 5 3 5 7 14 20 28 32 38 42 45 39 36 39 38 37 38 36 19 13 12 12 15 14 14 16 21 14 17 25 26 22 17 30 13 7 3 5 18 2
9 12 13 10 10 11 7 8 5 7 8 8 10 8 7 6 5 9 5 11 19 23 23 18 36 40 44 39 28 30 32 25 22 21 14 15 16 17 18 15 23 20 33 20 31 16 12 4 11 17 11 18 25 11
9 13 23 20 24 22 14 28 27 11 8 7 6 6 5 5 6 7 22 24 28 12 20 30 32 36 41 41 39 27 23 27 25 21 17 17 15 12 8 6 33 25 40 27 27 10 12 26 25 19 22 19 16 10
21 16 20 24 22 21 19 21 18 11 7 8 6 5 3 4 5 14 20 17 7 14 20 22 27 32 33 30 30 34 31 29 25 24 20 12 9 9 10 18 28 44 44 19 12 8 10 15 10 28 21 22 18 17
20 17 19 26 26 13 13 12 15 26 30 33 12 8 6 9 29 29 25 12 16 14 29 27 28 30 30 30 31 27 27 29 31 23 17 20 22 15 12 11 17 50 42 16 6 0 6 11 20 37 18 15 17 13
31 30 28 20 11 9 18 19 27 28 31 34 31 35 34 27 25 18 15 10 8 15 25 27 21 25 33 32 32 27 26 23 22 25 26 23 29 16 20 27 45 45 31 26 19 11 15 21 26 22 15 14 15 6
19 14 14 21 17 30 29 31 33 38 39 39 35 38 40 36 29 17 6 2 5 7 12 16 19 25 31 28 27 26 23 22 21 10 15 23 20 23 39 47 37 31 24 21 24 26 25 19 12 15 10 6 6 5
8 10 9 8 18 24 39 24 26 30 27 25 25 26 22 17 15 7 10 8 8 13 15 16 21 23 24 25 25 26 22 26 28 18 24 26 39 60 45 37 28 25 22 31 31 26 13 3 2 8 8 7 19 8
10 16 17 13 9 8 10 13 8 11 9 8 7 6 4 2 6 5 2 7 13 14 18 18 22 22 23 23 29 29 27 24 29 29 42 51 43 43 40 31 31 31 26 23 31 19 12 13 9 17 12 8 19 14
Wind_Direction_850mb
304 305 307 306 305 303 302 301 300 297 294 292 289 292 294 293 294 290 265 233 280 283 277 279 282 286 278 261 274 279 300 245 264 259 255 266 263 264 266 261 259 270 264 238 245 256 261 41 327 323 48 14 1 343
305 308 310 313 312 316 316 311 306 305 304 298 293 288 285 287 283 281 282 287 277 267 266 291 278 265 264 263 276 280 278 279 300 264 240 263 270 272 277 271 227 247 247 276 306 335 39 350 9 44 354 331 320 328
303 302 304 307 310 312 315 317 316 312 308 304 299 293 287 283 279 270 263 266 292 286 287 268 265 260 253 245 242 254 254 260 268 258 287 296 279 297 281 270 273 255 230 234 256 272 332 322 321 315 298 299 323 312
303 303 303 305 307 309 311 313 317 316 313 310 305 300 291 282 279 275 264 247 267 274 281 280 274 266 253 242 235 237 244 253 269 270 258 251 265 269 264 274 275 276 278 287 267 273 280 274 289 343 334 310 305 300
303 304 304 303 305 306 306 310 310 312 314 313 307 306 303 295 286 279 269 254 240 240 304 300 300 272 244 225 234 234 232 237 242 247 233 243 258 268 266 270 270 264 274 265 269 275 286 313 317 312 308 303 299 298
303 303 300 299 299 302 304 303 305 301 301 307 304 305 304 303 299 307 319 267 218 241 260 269 308 274 254 231 228 234 231 235 238 239 245 254 255 261 259 256 263 266 255 252 264 291 302 293 296 301 296 290 290 293
297 300 301 301 299 298 298 296 295 297 298 302 302 298 296 296 286 243 234 212 202 199 251 258 239 240 231 230 232 223 225 230 233 232 236 245 248 247 257 261 263 268 295 300 298 261 262 266 288 286 298 292 292 293
297 294 296 299 300 297 296 300 295 290 292 297 301 302 298 294 287 271 248 245 207 195 273 265 257 279 197 217 219 215 222 224 229 243 242 239 245 249 255 262 266 269 269 273 271 268 281 287 287 289 290 289 292 295
305 307 304 300 297 298 298 294 292 286 287 287 294 311 307 265 249 248 226 199 221 204 263 276 245 259 219 213 216 213 212 227 224 226 233 236 234 228 233 246 248 232 261 270 258 261 258 261 271 274 289 296 307 307
294 296 295 298 297 296 299 298 297 286 283 279 295 267 261 239 232 189 175 186 202 238 226 259 273 286 322 307 231 215 211 221 225 213 224 227 240 248 245 235 225 223 245 254 270 284 284 270 267 290 304 309 303 305
289 290 291 293 294 293 295 293 293 284 275 261 244 235 286 270 183 195 199 215 185 215 214 223 238 264 290 311 319 348 302 219 229 227 214 226 236 232 232 240 243 241 220 208 248 243 270 283 296 305 306 305 307 306
293 289 286 285 290 291 292 291 283 271 255 236 302 289 286 234 235 218 192 213 208 220 210 209 217 215 248 309 315 325 280 233 250 214 209 222 224 63 208 210 213 185 196 198 198 230 276 295 301 302 305 308 311 309
294 287 286 285 294 290 284 294 269 272 270 275 261 238 242 208 246 236 191 188 212 218 219 206 189 178 205 257 277 308 288 272 295 225 198 217 122 113 116 128 134 145 156 170 210 274 298 303 305 307 307 308 314 318
298 298 291 289 292 286 294 274 275 268 230 226 229 243 249 219 240 228 241 257 246 251 251 203 171 155 159 173 345 268 250 266 267 228 191 155 140 136 138 145 145 151 162 179 275 299 307 314 308 304 308 307 310 318
298 301 299 292 286 288 274 265 281 210 205 250 234 245 247 270 287 323 333 315 302 315 293 120 208 133 133 149 200 251 253 241 233 231 235 148 145 145 143 145 146 143 163 241 296 312 314 307 308 310 309 299 313 320
304 306 314 300 285 266 287 244 208 202 220 225 234 246 255 277 284 325 342 340 350 328 169 129 76 119 219 189 194 204 223 230 226 227 131 134 135 136 135 133 125 131 153 277 312 310 310 319 321 317 318 307 286 330
302 288 308 302 254 271 246 206 204 210 234 232 244 243 265 265 284 298 280 333 318 321 307 57 172 235 293 227 213 240 228 354 97 121 128 132 131 130 132 129 123 122 125 354 335 312 336 346 342 14 20 44 93 88
284 292 309 297 241 216 200 202 225 237 243 242 248 263 273 273 274 278 287 284 288 292 342 107 188 248 259 251 165 357 1 333 337 133 125 129 127 127 122 119 128 134 116 102 38 356 62 13 31 37 64 98 95 82
273 320 314 302 256 235 224 236 216 259 243 253 253 254 262 266 266 256 261 265 264 288 153 230 238 226 247 212 354 357 352 355 327 119 117 123 119 115 116 130 150 150 150 124 84 45 56 74 50 66 99 108 103 74
252 257 264 242 223 254 243 234 221 256 271 288 293 276 275 278 268 262 260 210 190 207 203 227 237 253 246 17 6 337 353 332 330 130 128 123 114 116 118 137 142 167 170 132 89 94 103 90 78 91 94 94 94 84
266 258 253 230 248 253 260 260 251 258 284 278 278 287 275 267 261 267 250 230 198 214 226 243 261 279 204 221 278 280 271 314 321 1 55 116 111 115 148 191 210 127 128 101 129 115 112 117 108 93 103 94 95 95
295 277 273 271 259 253 262 242 248 274 265 274 291 283 265 266 272 259 249 243 227 222 222 244 247 248 178 237 312 230 268 301 339 343 32 68 55 49 26 83 97 128 118 122 143 128 125 117 117 117 107 94 86 67
282 270 256 240 253 248 263 240 245 243 262 271 277 260 254 254 258 266 243 238 244 241 236 235 234 237 233 241 272 274 266 263 262 303 13 355 326 317 282 224 199 159 127 148 150 139 137 138 107 78 143 145 113 78
267 255 243 235 221 262 247 234 216 238 257 255 273 272 244 215 252 228 230 235 241 236 230 231 226 221 224 223 227 231 238 230 254 296 305 301 293 283 238 228 179 136 131 146 148 145 141 147 119 143 146 181 117 108
258 243 219 230 235 233 254 239 212 200 247 222 243 252 264 299 257 252 251 254 246 231 218 204 205 211 219 220 223 223 224 222 229 265 267 252 265 263 225 219 142 127 157 158 157 168 178 135 91 152 232 123 124 241
241 229 211 239 205 224 253 285 243 225 244 224 236 236 229 221 253 262 257 265 254 242 242 220 201 200 210 215 214 219 220 217 250 229 243 245 233 237 262 236 157 161 159 167 159 182 145 154 197 186 138 115 115 106
245 245 220 240 260 272 272 282 287 245 257 256 250 201 203 228 248 273 286 286 274 220 221 217 208 197 205 214 214 200 207 214 220 209 223 216 230 214 302 22 153 158 178 172 184 169 199 224 200 206 151 132 111 113
240 275 264 262 245 265 271 293 297 275 238 229 268 243 228 246 237 246 216 130 134 179 179 182 185 190 187 195 192 184 192 200 197 206 213 184 184 200 153 138 125 150 171 149 136 97 100 148 154 143 119 166 139 109
241 256 277 278 278 269 258 257 250 263 288 314 316 323 268 235 309 310 328 194 144 192 183 190 194 196 183 175 172 184 184 184 180 195 191 186 190 169 173 183 176 168 166 186 196 145 305 170 149 128 122 130 127 111
261 259 259 269 262 254 246 233 270 284 289 292 287 276 283 286 296 301 305 315 269 170 167 161 163 166 166 164 175 181 179 173 176 188 206 229 173 181 178 160 158 168 176 170 145 132 124 124 116 129 138 114 136 152
284 279 259 252 261 267 276 283 284 283 279 283 287 296 301 317 316 325 324 210 231 200 162 168 171 171 174 174 170 174 177 179 179 144 148 166 165 160 149 156 161 170 175 178 153 153 147 150 139 130 120 339 42 299
258 245 262 254 264 302 315 298 286 283 282 284 284 288 270 278 280 291 287 272 222 205 197 187 187 186 184 184 187 188 177 174 181 184 162 144 154 143 154 162 170 162 161 159 163 151 170 165 253 209 280 11 185 267
238 250 251 277 277 270 284 325 318 320 306 305 311 317 311 252 260 292 346 174 164 160 175 173 174 177 183 186 171 164 168 176 183 175 151 156 161 153 157 165 161 165 173 165 154 163 139 162 218 200 143 98 104 94